Flag Weather past 2 weeks in Târgu Mureş, Romania

Now
36 °F

Fog.


Feels Like: 36 °F
Forecast: 27 / 39 °F
Wind: No wind

Location: Tirgu Mures Airport

Current Time: Nov 24, 2014 at 7:35:59 AM

Latest Report: Nov 24, 2014 at 7:00 AM


Visibility: 2 mi

Pressure: 30.36 "Hg

Humidity: 93%

Dew point: 34 °F

Location of Târgu MureşLocation

Historic Weather in Târgu Mureş — Graph

°F

Târgu Mureş temperature yesterday

Maximum temperature yesterday: 43 °F (at 12:30 PM)
Minimum temperature yesterday: 37 °F (at 7:30 AM)
Average temperature yesterday: 40 °F

Past Weeks' High & Low Weather Summary

 TemperatureHumidityPressure
High68 °F (Nov 9, 1:30 PM)100% (Nov 9, 7:00 AM)30.42 "Hg (Nov 9, 7:00 AM)
Low30 °F (Nov 11, 5:30 AM)34% (Nov 16, 3:30 PM)29.89 "Hg (Nov 16, 2:00 PM)
Average44 °F85%30.08 "Hg
* Reported Nov 9 6:00 AM — Nov 24 6:30 AM, Târgu Mureş, Weather by CustomWeather, © 2014

Note: Actual official high and low records may vary slightly from our data, if they occured in-between our weather recording intervals... More about our weather records

Advertising

Târgu Mureş weather history for previous 24 hours

 ConditionsComfort  
Time TempWeatherWind HumidityBarometerVisibility
6:30 AM
Nov 24
36 °FFog.No wind93%30.36 "Hg2 mi
6:00 AM36 °FFog.No wind93%30.36 "Hg2 mi
5:30 AM36 °FFog.2 mph93%30.36 "Hg3 mi
5:00 AM36 °FPassing clouds.No wind93%30.36 "Hg4 mi
4:00 AM37 °FPassing clouds.2 mph93%30.36 "Hg5 mi
3:00 AM37 °FFog.No wind93%30.36 "Hg3 mi
2:00 AM37 °FFog.2 mph93%30.36 "Hg3 mi
1:00 AM37 °FFog.2 mph100%30.36 "Hg3 mi
12:00 AM39 °FMostly cloudy.No wind93%30.39 "Hg4 mi
11:00 PM
Nov 23
39 °FOvercast.5 mph93%30.39 "Hg4 mi
10:00 PM39 °FPassing clouds.2 mph87%30.39 "Hg5 mi
9:00 PM39 °FOvercast.2 mph87%30.39 "Hg5 mi
8:30 PM39 °FPartly cloudy.5 mph87%30.39 "Hg4 mi
8:00 PM39 °FPassing clouds.5 mph87%30.39 "Hg4 mi
7:30 PM39 °FMostly cloudy.2 mph87%30.39 "HgN/A
7:00 PM39 °FOvercast.2 mph87%30.39 "HgN/A
6:30 PM39 °FMostly cloudy.2 mph87%30.39 "HgN/A
6:00 PM41 °FOvercast.2 mph81%30.39 "Hg6 mi
5:30 PM41 °FOvercast.No wind81%30.39 "HgN/A
5:00 PM41 °FOvercast.2 mph81%30.39 "HgN/A
4:30 PM41 °FOvercast.No wind76%30.39 "HgN/A
4:00 PM41 °FOvercast.2 mph76%30.39 "HgN/A
3:30 PM43 °FOvercast.2 mph71%30.39 "HgN/A
3:00 PM43 °FOvercast.2 mph71%30.39 "HgN/A
2:30 PM43 °FOvercast.2 mph71%30.39 "HgN/A
2:00 PM43 °FOvercast.2 mph71%30.39 "HgN/A
1:30 PM43 °FOvercast.2 mph71%30.39 "HgN/A
1:00 PM43 °FOvercast.2 mph71%30.39 "HgN/A
12:30 PM43 °FOvercast.5 mph71%30.39 "HgN/A
12:00 PM41 °FOvercast.2 mph76%30.39 "HgN/A
11:30 AM41 °FOvercast.2 mph81%30.42 "HgN/A
11:00 AM41 °FOvercast.2 mph81%30.42 "HgN/A
10:30 AM41 °FOvercast.2 mph87%30.39 "HgN/A
10:00 AM39 °FOvercast.2 mph93%30.39 "Hg5 mi
9:30 AM39 °FOvercast.2 mph93%30.39 "Hg6 mi
9:00 AM39 °FOvercast.2 mph93%30.39 "Hg6 mi
8:30 AM39 °FOvercast.2 mph93%30.39 "Hg6 mi
8:00 AM37 °FOvercast.2 mph93%30.36 "Hg6 mi
7:30 AM37 °FOvercast.2 mph93%30.36 "Hg6 mi
7:00 AM39 °FOvercast.No wind87%30.36 "HgN/A
Weather by CustomWeather, © 2014

See weather overviewHow to use our weather pages